Year,Month,Day,Hour,Minute,Value (Times are PST for temperature in C)
2010,08,15,00,00,18.70
2010,08,15,00,01,18.60
2010,08,15,00,02,18.60
2010,08,15,00,03,18.60
2010,08,15,00,04,18.60
2010,08,15,00,05,18.60
2010,08,15,00,06,18.60
2010,08,15,00,07,18.60
2010,08,15,00,08,18.50
2010,08,15,00,09,18.60
2010,08,15,00,10,18.60
2010,08,15,00,11,18.60
2010,08,15,00,12,18.60
2010,08,15,00,13,18.60
2010,08,15,00,14,18.60
2010,08,15,00,15,18.70
2010,08,15,00,16,18.70
2010,08,15,00,17,18.60
2010,08,15,00,18,18.60
2010,08,15,00,19,18.60
2010,08,15,00,20,18.60
2010,08,15,00,21,18.50
2010,08,15,00,22,18.50
2010,08,15,00,23,18.40
2010,08,15,00,24,18.40
2010,08,15,00,25,18.40
2010,08,15,00,26,18.30
2010,08,15,00,27,18.30
2010,08,15,00,28,18.30
2010,08,15,00,29,18.20
2010,08,15,00,30,18.20
2010,08,15,00,31,18.20
2010,08,15,00,32,18.10
2010,08,15,00,33,18.10
2010,08,15,00,34,17.90
2010,08,15,00,35,17.90
2010,08,15,00,36,17.80
2010,08,15,00,37,17.80
2010,08,15,00,38,17.70
2010,08,15,00,39,17.70
2010,08,15,00,40,17.70
2010,08,15,00,41,17.60
2010,08,15,00,42,17.60
2010,08,15,00,43,17.60
2010,08,15,00,44,17.60
2010,08,15,00,45,17.50
2010,08,15,00,46,17.50
2010,08,15,00,47,17.50
2010,08,15,00,48,17.40
2010,08,15,00,49,17.40
2010,08,15,00,50,17.40
2010,08,15,00,51,17.40
2010,08,15,00,52,17.40
2010,08,15,00,53,17.40
2010,08,15,00,54,17.40
2010,08,15,00,55,17.40
2010,08,15,00,56,17.40
2010,08,15,00,57,17.40
2010,08,15,00,58,17.40
2010,08,15,00,59,17.40
2010,08,15,01,00,17.30
2010,08,15,01,01,17.30
2010,08,15,01,02,17.30
2010,08,15,01,03,17.30
2010,08,15,01,04,17.30
2010,08,15,01,05,17.30
2010,08,15,01,06,17.30
2010,08,15,01,07,17.30
2010,08,15,01,08,17.40
2010,08,15,01,09,17.40
2010,08,15,01,10,17.40
2010,08,15,01,11,17.30
2010,08,15,01,12,17.30
2010,08,15,01,13,17.30
2010,08,15,01,14,17.30
2010,08,15,01,15,17.30
2010,08,15,01,16,17.40
2010,08,15,01,17,17.40
2010,08,15,01,18,17.50
2010,08,15,01,19,17.50
2010,08,15,01,20,17.50
2010,08,15,01,21,17.50
2010,08,15,01,22,17.50
2010,08,15,01,23,17.50
2010,08,15,01,24,17.50
2010,08,15,01,25,17.50
2010,08,15,01,26,17.50
2010,08,15,01,27,17.40
2010,08,15,01,28,17.40
2010,08,15,01,29,17.40
2010,08,15,01,30,17.30
2010,08,15,01,31,17.30
2010,08,15,01,32,17.30
2010,08,15,01,33,17.30
2010,08,15,01,34,17.30
2010,08,15,01,35,17.20
2010,08,15,01,36,17.20
2010,08,15,01,37,17.20
2010,08,15,01,38,17.20
2010,08,15,01,39,17.20
2010,08,15,01,40,17.20
2010,08,15,01,41,17.10
2010,08,15,01,42,17.10
2010,08,15,01,43,17.10
2010,08,15,01,44,17.10
2010,08,15,01,45,17.00
2010,08,15,01,46,17.00
2010,08,15,01,47,17.00
2010,08,15,01,48,17.00
2010,08,15,01,49,17.00
2010,08,15,01,50,16.90
2010,08,15,01,51,16.90
2010,08,15,01,52,16.90
2010,08,15,01,53,16.90
2010,08,15,01,54,16.90
2010,08,15,01,55,16.80
2010,08,15,01,56,16.80
2010,08,15,01,57,16.80
2010,08,15,01,58,16.70
2010,08,15,01,59,16.70
2010,08,15,02,00,16.70
2010,08,15,02,01,16.70
2010,08,15,02,02,16.70
2010,08,15,02,03,16.70
2010,08,15,02,04,16.60
2010,08,15,02,05,16.60
2010,08,15,02,06,16.60
2010,08,15,02,07,16.60
2010,08,15,02,08,16.50
2010,08,15,02,09,16.50
2010,08,15,02,10,16.60
2010,08,15,02,11,16.60
2010,08,15,02,12,16.60
2010,08,15,02,13,16.70
2010,08,15,02,14,16.70
2010,08,15,02,15,16.70
2010,08,15,02,16,16.70
2010,08,15,02,17,16.80
2010,08,15,02,18,16.80
2010,08,15,02,19,16.80
2010,08,15,02,20,16.80
2010,08,15,02,21,16.90
2010,08,15,02,22,16.90
2010,08,15,02,23,16.90
2010,08,15,02,24,16.90
2010,08,15,02,25,16.80
2010,08,15,02,26,16.80
2010,08,15,02,27,16.80
2010,08,15,02,28,16.80
2010,08,15,02,29,16.70
2010,08,15,02,30,16.70
2010,08,15,02,31,16.70
2010,08,15,02,32,16.70
2010,08,15,02,33,16.70
2010,08,15,02,34,16.70
2010,08,15,02,35,16.60
2010,08,15,02,36,16.60
2010,08,15,02,37,16.60
2010,08,15,02,38,16.60
2010,08,15,02,39,16.60
2010,08,15,02,40,16.60
2010,08,15,02,41,16.60
2010,08,15,02,42,16.60
2010,08,15,02,43,16.60
2010,08,15,02,44,16.60
2010,08,15,02,45,16.50
2010,08,15,02,46,16.40
2010,08,15,02,47,16.40
2010,08,15,02,48,16.40
2010,08,15,02,49,16.40
2010,08,15,02,50,16.40
2010,08,15,02,51,16.40
2010,08,15,02,52,16.40
2010,08,15,02,53,16.40
2010,08,15,02,54,16.40
2010,08,15,02,55,16.40
2010,08,15,02,56,16.40
2010,08,15,02,57,16.40
2010,08,15,02,58,16.40
2010,08,15,02,59,16.40
2010,08,15,03,00,16.40
2010,08,15,03,01,16.30
2010,08,15,03,02,16.30
2010,08,15,03,03,16.30
2010,08,15,03,04,16.30
2010,08,15,03,05,16.40
2010,08,15,03,06,16.40
2010,08,15,03,07,16.40
2010,08,15,03,08,16.40
2010,08,15,03,09,16.50
2010,08,15,03,10,16.60
2010,08,15,03,11,16.70
2010,08,15,03,12,16.70
2010,08,15,03,13,16.70
2010,08,15,03,14,16.70
2010,08,15,03,15,16.70
2010,08,15,03,16,16.70
2010,08,15,03,17,16.70
2010,08,15,03,18,16.70
2010,08,15,03,19,16.70
2010,08,15,03,20,16.70
2010,08,15,03,21,16.70
2010,08,15,03,22,16.70
2010,08,15,03,23,16.70
2010,08,15,03,24,16.70
2010,08,15,03,25,16.80
2010,08,15,03,26,16.80
2010,08,15,03,27,16.80
2010,08,15,03,28,16.70
2010,08,15,03,29,16.70
2010,08,15,03,30,16.70
2010,08,15,03,31,16.70
2010,08,15,03,32,16.70
2010,08,15,03,33,16.70
2010,08,15,03,34,16.70
2010,08,15,03,35,16.70
2010,08,15,03,36,16.70
2010,08,15,03,37,16.70
2010,08,15,03,38,16.70
2010,08,15,03,39,16.70
2010,08,15,03,40,16.70
2010,08,15,03,41,16.70
2010,08,15,03,42,16.70
2010,08,15,03,43,16.70
2010,08,15,03,44,16.60
2010,08,15,03,45,16.60
2010,08,15,03,46,16.60
2010,08,15,03,47,16.60
2010,08,15,03,48,16.60
2010,08,15,03,49,16.60
2010,08,15,03,50,16.60
2010,08,15,03,51,16.60
2010,08,15,03,52,16.60
2010,08,15,03,53,16.60
2010,08,15,03,54,16.60
2010,08,15,03,55,16.50
2010,08,15,03,56,16.40
2010,08,15,03,57,16.40
2010,08,15,03,58,16.40
2010,08,15,03,59,16.40
2010,08,15,04,00,16.40
2010,08,15,04,01,16.40
2010,08,15,04,02,16.40
2010,08,15,04,03,16.40
2010,08,15,04,04,16.40
2010,08,15,04,05,16.40
2010,08,15,04,06,16.40
2010,08,15,04,07,16.30
2010,08,15,04,08,16.30
2010,08,15,04,09,16.30
2010,08,15,04,10,16.30
2010,08,15,04,11,16.30
2010,08,15,04,12,16.20
2010,08,15,04,13,16.20
2010,08,15,04,14,16.20
2010,08,15,04,15,16.20
2010,08,15,04,16,16.20
2010,08,15,04,17,16.10
2010,08,15,04,18,16.10
2010,08,15,04,19,16.10
2010,08,15,04,20,16.10
2010,08,15,04,21,16.10
2010,08,15,04,22,16.10
2010,08,15,04,23,16.10
2010,08,15,04,24,16.00
2010,08,15,04,25,15.90
2010,08,15,04,26,15.90
2010,08,15,04,27,15.90
2010,08,15,04,28,15.90
2010,08,15,04,29,15.90
2010,08,15,04,30,15.90
2010,08,15,04,31,15.90
2010,08,15,04,32,15.90
2010,08,15,04,33,15.90
2010,08,15,04,34,15.90
2010,08,15,04,35,15.90
2010,08,15,04,36,15.90
2010,08,15,04,37,15.80
2010,08,15,04,38,15.80
2010,08,15,04,39,15.80
2010,08,15,04,40,15.80
2010,08,15,04,41,15.80
2010,08,15,04,42,15.80
2010,08,15,04,43,15.90
2010,08,15,04,44,15.90
2010,08,15,04,45,15.90
2010,08,15,04,46,15.90
2010,08,15,04,47,16.00
2010,08,15,04,48,16.00
2010,08,15,04,49,16.10
2010,08,15,04,50,15.90
2010,08,15,04,51,15.90
2010,08,15,04,52,16.00
2010,08,15,04,53,16.10
2010,08,15,04,54,16.10
2010,08,15,04,55,16.20
2010,08,15,04,56,16.30
2010,08,15,04,57,16.30
2010,08,15,04,58,16.40
2010,08,15,04,59,16.40
2010,08,15,05,00,16.40
2010,08,15,05,01,16.60
2010,08,15,05,02,16.60
2010,08,15,05,03,16.70
2010,08,15,05,04,16.70
2010,08,15,05,05,16.80
2010,08,15,05,06,16.80
2010,08,15,05,07,16.80
2010,08,15,05,08,16.90
2010,08,15,05,09,16.90
2010,08,15,05,10,16.90
2010,08,15,05,11,17.00
2010,08,15,05,12,17.00
2010,08,15,05,13,17.10
2010,08,15,05,14,17.10
2010,08,15,05,15,17.20
2010,08,15,05,16,17.20
2010,08,15,05,17,17.20
2010,08,15,05,18,17.30
2010,08,15,05,19,17.30
2010,08,15,05,20,17.30
2010,08,15,05,21,17.30
2010,08,15,05,22,17.30
2010,08,15,05,23,17.30
2010,08,15,05,24,17.20
2010,08,15,05,25,17.20
2010,08,15,05,26,17.10
2010,08,15,05,27,17.10
2010,08,15,05,28,17.00
2010,08,15,05,29,17.00
2010,08,15,05,30,16.90
2010,08,15,05,31,16.90
2010,08,15,05,32,16.80
2010,08,15,05,33,16.80
2010,08,15,05,34,16.80
2010,08,15,05,35,16.80
2010,08,15,05,36,16.70
2010,08,15,05,37,16.70
2010,08,15,05,38,16.70
2010,08,15,05,39,16.60
2010,08,15,05,40,16.60
2010,08,15,05,41,16.60
2010,08,15,05,42,16.50
2010,08,15,05,43,16.40
2010,08,15,05,44,16.40
2010,08,15,05,45,16.40
2010,08,15,05,46,16.40
2010,08,15,05,47,16.40
2010,08,15,05,48,16.50
2010,08,15,05,49,16.60
2010,08,15,05,50,16.60
2010,08,15,05,51,16.60
2010,08,15,05,52,16.60
2010,08,15,05,53,16.60
2010,08,15,05,54,16.60
2010,08,15,05,55,16.60
2010,08,15,05,56,16.40
2010,08,15,05,57,16.40
2010,08,15,05,58,16.40
2010,08,15,05,59,16.40
2010,08,15,06,00,16.40
2010,08,15,06,01,16.30
2010,08,15,06,02,16.30
2010,08,15,06,03,16.30
2010,08,15,06,04,16.20
2010,08,15,06,05,16.20
2010,08,15,06,06,16.20
2010,08,15,06,07,16.10
2010,08,15,06,08,16.10
2010,08,15,06,09,16.10
2010,08,15,06,10,16.10
2010,08,15,06,11,16.10
2010,08,15,06,12,16.10
2010,08,15,06,13,16.10
2010,08,15,06,14,16.10
2010,08,15,06,15,16.10
2010,08,15,06,16,16.10
2010,08,15,06,17,16.10
2010,08,15,06,18,16.20
2010,08,15,06,19,16.20
2010,08,15,06,20,16.30
2010,08,15,06,21,16.40
2010,08,15,06,22,16.40
2010,08,15,06,23,16.60
2010,08,15,06,24,16.60
2010,08,15,06,25,16.60
2010,08,15,06,26,16.70
2010,08,15,06,27,16.70
2010,08,15,06,28,16.70
2010,08,15,06,29,16.70
2010,08,15,06,30,16.70
2010,08,15,06,31,16.70
2010,08,15,06,32,16.70
2010,08,15,06,33,16.60
2010,08,15,06,34,16.60
2010,08,15,06,35,16.60
2010,08,15,06,36,16.50
2010,08,15,06,37,16.40
2010,08,15,06,38,16.40
2010,08,15,06,39,16.40
2010,08,15,06,40,16.40
2010,08,15,06,41,16.40
2010,08,15,06,42,16.40
2010,08,15,06,43,16.40
2010,08,15,06,44,16.40
2010,08,15,06,45,16.40
2010,08,15,06,46,16.40
2010,08,15,06,47,16.40
2010,08,15,06,48,16.40
2010,08,15,06,49,16.50
2010,08,15,06,50,16.60
2010,08,15,06,51,16.70
2010,08,15,06,52,16.80
2010,08,15,06,53,16.80
2010,08,15,06,54,16.90
2010,08,15,06,55,16.90
2010,08,15,06,56,17.00
2010,08,15,06,57,17.00
2010,08,15,06,58,17.10
2010,08,15,06,59,17.10
2010,08,15,07,00,17.20
2010,08,15,07,01,17.30
2010,08,15,07,02,17.40
2010,08,15,07,03,17.40
2010,08,15,07,04,17.50
2010,08,15,07,05,17.70
2010,08,15,07,06,17.80
2010,08,15,07,07,17.90
2010,08,15,07,08,18.00
2010,08,15,07,09,18.20
2010,08,15,07,10,18.40
2010,08,15,07,11,18.60
2010,08,15,07,12,18.60
2010,08,15,07,13,18.70
2010,08,15,07,14,18.80
2010,08,15,07,15,18.90
2010,08,15,07,16,18.90
2010,08,15,07,17,19.10
2010,08,15,07,18,19.10
2010,08,15,07,19,19.20
2010,08,15,07,20,19.30
2010,08,15,07,21,19.40
2010,08,15,07,22,19.50
2010,08,15,07,23,19.60
2010,08,15,07,24,19.70
2010,08,15,07,25,19.80
2010,08,15,07,26,19.90
2010,08,15,07,27,19.90
2010,08,15,07,28,20.00
2010,08,15,07,29,20.10
2010,08,15,07,30,20.10
2010,08,15,07,31,20.10
2010,08,15,07,32,20.10
2010,08,15,07,33,20.10
2010,08,15,07,34,20.20
2010,08,15,07,35,20.20
2010,08,15,07,36,20.20
2010,08,15,07,37,20.10
2010,08,15,07,38,20.10
2010,08,15,07,39,20.10
2010,08,15,07,40,20.10
2010,08,15,07,41,20.10
2010,08,15,07,42,20.20
2010,08,15,07,43,20.20
2010,08,15,07,44,20.20
2010,08,15,07,45,20.20
2010,08,15,07,46,20.20
2010,08,15,07,47,20.20
2010,08,15,07,48,20.20
2010,08,15,07,49,20.30
2010,08,15,07,50,20.40
2010,08,15,07,51,20.40
2010,08,15,07,52,20.40
2010,08,15,07,53,20.50
2010,08,15,07,54,20.50
2010,08,15,07,55,20.60
2010,08,15,07,56,20.60
2010,08,15,07,57,20.60
2010,08,15,07,58,20.70
2010,08,15,07,59,20.70
2010,08,15,08,00,20.80
2010,08,15,08,01,20.80
2010,08,15,08,02,20.90
2010,08,15,08,03,21.00
2010,08,15,08,04,21.00
2010,08,15,08,05,21.00
2010,08,15,08,06,21.10
2010,08,15,08,07,21.20
2010,08,15,08,08,21.30
2010,08,15,08,09,21.30
2010,08,15,08,10,21.40
2010,08,15,08,11,21.50
2010,08,15,08,12,21.60
2010,08,15,08,13,21.60
2010,08,15,08,14,21.70
2010,08,15,08,15,21.80
2010,08,15,08,16,21.90
2010,08,15,08,17,21.90
2010,08,15,08,18,22.00
2010,08,15,08,19,22.10
2010,08,15,08,20,22.20
2010,08,15,08,21,22.30
2010,08,15,08,22,22.30
2010,08,15,08,23,22.40
2010,08,15,08,24,22.50
2010,08,15,08,25,22.60
2010,08,15,08,26,22.60
2010,08,15,08,27,22.70
2010,08,15,08,28,22.80
2010,08,15,08,29,22.80
2010,08,15,08,30,22.80
2010,08,15,08,31,22.80
2010,08,15,08,32,22.80
2010,08,15,08,33,23.20
2010,08,15,08,34,23.30
2010,08,15,08,35,23.30
2010,08,15,08,36,23.30
2010,08,15,08,37,23.30
2010,08,15,08,38,23.30
2010,08,15,08,39,23.30
2010,08,15,08,40,23.30
2010,08,15,08,41,23.30
2010,08,15,08,42,23.30
2010,08,15,08,43,23.30
2010,08,15,08,44,23.30
2010,08,15,08,45,23.40
2010,08,15,08,46,23.40
2010,08,15,08,47,23.50
2010,08,15,08,48,23.60
2010,08,15,08,49,23.60
2010,08,15,08,50,23.70
2010,08,15,08,51,23.70
2010,08,15,08,52,23.80
2010,08,15,08,53,23.80
2010,08,15,08,54,23.90
2010,08,15,08,55,24.10
2010,08,15,08,56,24.10
2010,08,15,08,57,24.30
2010,08,15,08,58,24.50
2010,08,15,08,59,24.60
2010,08,15,09,00,24.80
2010,08,15,09,01,24.90
2010,08,15,09,02,25.00
2010,08,15,09,03,25.10
2010,08,15,09,04,25.20
2010,08,15,09,05,25.20
2010,08,15,09,06,25.20
2010,08,15,09,07,25.20
2010,08,15,09,08,25.20
2010,08,15,09,09,25.30
2010,08,15,09,10,25.30
2010,08,15,09,11,25.30
2010,08,15,09,12,25.30
2010,08,15,09,13,25.40
2010,08,15,09,14,25.40
2010,08,15,09,15,25.30
2010,08,15,09,16,25.30
2010,08,15,09,17,25.30
2010,08,15,09,18,25.20
2010,08,15,09,19,25.20
2010,08,15,09,20,25.30
2010,08,15,09,21,25.40
2010,08,15,09,22,25.50
2010,08,15,09,23,25.60
2010,08,15,09,24,25.60
2010,08,15,09,25,25.70
2010,08,15,09,26,25.60
2010,08,15,09,27,25.40
2010,08,15,09,28,25.20
2010,08,15,09,29,25.10
2010,08,15,09,30,25.00
2010,08,15,09,31,25.10
2010,08,15,09,32,25.10
2010,08,15,09,33,25.00
2010,08,15,09,34,25.00
2010,08,15,09,35,24.90
2010,08,15,09,36,24.80
2010,08,15,09,37,24.70
2010,08,15,09,38,24.70
2010,08,15,09,39,24.80
2010,08,15,09,40,24.80
2010,08,15,09,41,24.80
2010,08,15,09,42,24.70
2010,08,15,09,43,24.70
2010,08,15,09,44,24.80
2010,08,15,09,45,24.90
2010,08,15,09,46,24.90
2010,08,15,09,47,25.00
2010,08,15,09,48,25.20
2010,08,15,09,49,25.30
2010,08,15,09,50,25.50
2010,08,15,09,51,25.60
2010,08,15,09,52,25.80
2010,08,15,09,53,25.90
2010,08,15,09,54,26.10
2010,08,15,09,55,26.20
2010,08,15,09,56,26.40
2010,08,15,09,57,26.40
2010,08,15,09,58,26.60
2010,08,15,09,59,26.60
2010,08,15,10,00,26.70
2010,08,15,10,01,26.80
2010,08,15,10,02,26.90
2010,08,15,10,03,27.00
2010,08,15,10,04,27.10
2010,08,15,10,05,27.20
2010,08,15,10,06,27.30
2010,08,15,10,07,27.30
2010,08,15,10,08,27.30
2010,08,15,10,09,27.30
2010,08,15,10,10,27.30
2010,08,15,10,11,27.30
2010,08,15,10,12,27.40
2010,08,15,10,13,27.50
2010,08,15,10,14,27.60
2010,08,15,10,15,27.70
2010,08,15,10,16,27.80
2010,08,15,10,17,27.80
2010,08,15,10,18,27.90
2010,08,15,10,19,27.90
2010,08,15,10,20,27.80
2010,08,15,10,21,27.70
2010,08,15,10,22,27.70
2010,08,15,10,23,27.60
2010,08,15,10,24,27.60
2010,08,15,10,25,27.60
2010,08,15,10,26,27.60
2010,08,15,10,27,27.60
2010,08,15,10,28,27.60
2010,08,15,10,29,27.60
2010,08,15,10,30,27.60
2010,08,15,10,31,27.50
2010,08,15,10,32,27.40
2010,08,15,10,33,27.40
2010,08,15,10,34,27.40
2010,08,15,10,35,27.30
2010,08,15,10,36,27.30
2010,08,15,10,37,27.30
2010,08,15,10,38,27.30
2010,08,15,10,39,27.30
2010,08,15,10,40,27.30
2010,08,15,10,41,27.30
2010,08,15,10,42,27.20
2010,08,15,10,43,27.20
2010,08,15,10,44,27.20
2010,08,15,10,45,27.20
2010,08,15,10,46,27.20
2010,08,15,10,47,27.20
2010,08,15,10,48,27.20
2010,08,15,10,49,27.10
2010,08,15,10,50,27.10
2010,08,15,10,51,27.10
2010,08,15,10,52,27.20
2010,08,15,10,53,27.20
2010,08,15,10,54,27.20
2010,08,15,10,55,27.20
2010,08,15,10,56,27.20
2010,08,15,10,57,27.30
2010,08,15,10,58,27.30
2010,08,15,10,59,27.30
2010,08,15,11,00,27.30
2010,08,15,11,01,27.30
2010,08,15,11,02,27.30
2010,08,15,11,03,27.40
2010,08,15,11,04,27.40
2010,08,15,11,05,27.60
2010,08,15,11,06,27.70
2010,08,15,11,07,27.80
2010,08,15,11,08,27.80
2010,08,15,11,09,27.80
2010,08,15,11,10,27.70
2010,08,15,11,11,27.60
2010,08,15,11,12,27.40
2010,08,15,11,13,27.30
2010,08,15,11,14,27.20
2010,08,15,11,15,27.20
2010,08,15,11,16,27.20
2010,08,15,11,17,27.20
2010,08,15,11,18,27.30
2010,08,15,11,19,27.30
2010,08,15,11,20,27.30
2010,08,15,11,21,27.30
2010,08,15,11,22,27.30
2010,08,15,11,23,27.30
2010,08,15,11,24,27.40
2010,08,15,11,25,27.50
2010,08,15,11,26,27.60
2010,08,15,11,27,27.60
2010,08,15,11,28,27.40
2010,08,15,11,29,27.30
2010,08,15,11,30,27.20
2010,08,15,11,31,27.10
2010,08,15,11,32,27.10
2010,08,15,11,33,27.10
2010,08,15,11,34,27.20
2010,08,15,11,35,27.30
2010,08,15,11,36,27.30
2010,08,15,11,37,27.30
2010,08,15,11,38,27.10
2010,08,15,11,39,26.90
2010,08,15,11,40,26.80
2010,08,15,11,41,26.60
2010,08,15,11,42,26.50
2010,08,15,11,43,26.40
2010,08,15,11,44,26.50
2010,08,15,11,45,26.60
2010,08,15,11,46,26.70
2010,08,15,11,47,26.90
2010,08,15,11,48,27.10
2010,08,15,11,49,27.30
2010,08,15,11,50,27.30
2010,08,15,11,51,27.50
2010,08,15,11,52,27.60
2010,08,15,11,53,27.70
2010,08,15,11,54,27.70
2010,08,15,11,55,27.80
2010,08,15,11,56,27.90
2010,08,15,11,57,28.00
2010,08,15,11,58,28.00
2010,08,15,11,59,28.10
2010,08,15,12,00,28.20
2010,08,15,12,01,28.20
2010,08,15,12,02,28.30
2010,08,15,12,03,28.40
2010,08,15,12,04,28.50
2010,08,15,12,05,28.60
2010,08,15,12,06,28.70
2010,08,15,12,07,28.90
2010,08,15,12,08,28.90
2010,08,15,12,09,29.10
2010,08,15,12,10,29.20
2010,08,15,12,11,29.20
2010,08,15,12,12,29.20
2010,08,15,12,13,29.20
2010,08,15,12,14,29.30
2010,08,15,12,15,29.30
2010,08,15,12,16,29.30
2010,08,15,12,17,29.30
2010,08,15,12,18,29.20
2010,08,15,12,19,29.20
2010,08,15,12,20,29.10
2010,08,15,12,21,29.10
2010,08,15,12,22,29.10
2010,08,15,12,23,29.10
2010,08,15,12,24,29.00
2010,08,15,12,25,28.90
2010,08,15,12,26,28.90
2010,08,15,12,27,29.00
2010,08,15,12,28,29.10
2010,08,15,12,29,29.00
2010,08,15,12,30,28.90
2010,08,15,12,31,28.90
2010,08,15,12,32,28.90
2010,08,15,12,33,28.80
2010,08,15,12,34,28.80
2010,08,15,12,35,28.80
2010,08,15,12,36,28.70
2010,08,15,12,37,28.70
2010,08,15,12,38,28.70
2010,08,15,12,39,28.70
2010,08,15,12,40,28.70
2010,08,15,12,41,28.70
2010,08,15,12,42,28.60
2010,08,15,12,43,28.60
2010,08,15,12,44,28.60
2010,08,15,12,45,28.60
2010,08,15,12,46,28.60
2010,08,15,12,47,28.60
2010,08,15,12,48,28.70
2010,08,15,12,49,28.80
2010,08,15,12,50,28.80
2010,08,15,12,51,28.80
2010,08,15,12,52,28.80
2010,08,15,12,53,28.80
2010,08,15,12,54,28.80
2010,08,15,12,55,28.80
2010,08,15,12,56,28.70
2010,08,15,12,57,28.50
2010,08,15,12,58,28.40
2010,08,15,12,59,28.20
2010,08,15,13,00,28.10
2010,08,15,13,01,28.00
2010,08,15,13,02,28.00
2010,08,15,13,03,28.00
2010,08,15,13,04,28.10
2010,08,15,13,05,28.20
2010,08,15,13,06,28.20
2010,08,15,13,07,28.30
2010,08,15,13,08,28.30
2010,08,15,13,09,28.30
2010,08,15,13,10,28.40
2010,08,15,13,11,28.40
2010,08,15,13,12,28.40
2010,08,15,13,13,28.40
2010,08,15,13,14,28.30
2010,08,15,13,15,28.20
2010,08,15,13,16,28.20
2010,08,15,13,17,28.20
2010,08,15,13,18,28.30
2010,08,15,13,19,28.40
2010,08,15,13,20,28.60
2010,08,15,13,21,28.70
2010,08,15,13,22,28.80
2010,08,15,13,23,28.90
2010,08,15,13,24,28.90
2010,08,15,13,25,28.90
2010,08,15,13,26,28.90
2010,08,15,13,27,28.90
2010,08,15,13,28,28.90
2010,08,15,13,29,28.90
2010,08,15,13,30,28.90
2010,08,15,13,31,29.00
2010,08,15,13,32,29.00
2010,08,15,13,33,28.90
2010,08,15,13,34,28.70
2010,08,15,13,35,28.50
2010,08,15,13,36,28.30
2010,08,15,13,37,28.00
2010,08,15,13,38,27.70
2010,08,15,13,39,27.40
2010,08,15,13,40,27.30
2010,08,15,13,41,27.10
2010,08,15,13,42,27.00
2010,08,15,13,43,26.70
2010,08,15,13,44,26.60
2010,08,15,13,45,26.60
2010,08,15,13,46,26.60
2010,08,15,13,47,26.60
2010,08,15,13,48,26.60
2010,08,15,13,49,26.70
2010,08,15,13,50,26.60
2010,08,15,13,51,26.60
2010,08,15,13,52,26.60
2010,08,15,13,53,26.60
2010,08,15,13,54,26.50
2010,08,15,13,55,26.40
2010,08,15,13,56,26.40
2010,08,15,13,57,26.40
2010,08,15,13,58,26.50
2010,08,15,13,59,26.60
2010,08,15,14,00,26.70
2010,08,15,14,01,26.80
2010,08,15,14,02,26.80
2010,08,15,14,03,27.00
2010,08,15,14,04,27.10
2010,08,15,14,05,27.20
2010,08,15,14,06,27.30
2010,08,15,14,07,27.30
2010,08,15,14,08,27.30
2010,08,15,14,09,27.20
2010,08,15,14,10,27.10
2010,08,15,14,11,27.00
2010,08,15,14,12,26.80
2010,08,15,14,13,26.70
2010,08,15,14,14,26.60
2010,08,15,14,15,26.60
2010,08,15,14,16,26.50
2010,08,15,14,17,26.40
2010,08,15,14,18,26.30
2010,08,15,14,19,26.20
2010,08,15,14,20,26.00
2010,08,15,14,21,26.00
2010,08,15,14,22,26.00
2010,08,15,14,23,26.00
2010,08,15,14,24,26.00
2010,08,15,14,25,26.00
2010,08,15,14,26,26.00
2010,08,15,14,27,26.00
2010,08,15,14,28,26.00
2010,08,15,14,29,25.90
2010,08,15,14,30,25.90
2010,08,15,14,31,25.90
2010,08,15,14,32,25.90
2010,08,15,14,33,25.90
2010,08,15,14,34,25.90
2010,08,15,14,35,25.80
2010,08,15,14,36,25.90
2010,08,15,14,37,25.90
2010,08,15,14,38,25.90
2010,08,15,14,39,25.90
2010,08,15,14,40,25.90
2010,08,15,14,41,25.90
2010,08,15,14,42,25.90
2010,08,15,14,43,25.80
2010,08,15,14,44,25.80
2010,08,15,14,45,25.80
2010,08,15,14,46,25.70
2010,08,15,14,47,25.60
2010,08,15,14,48,25.60
2010,08,15,14,49,25.40
2010,08,15,14,50,25.20
2010,08,15,14,51,25.10
2010,08,15,14,52,25.10
2010,08,15,14,53,25.00
2010,08,15,14,54,24.90
2010,08,15,14,55,24.90
2010,08,15,14,56,24.90
2010,08,15,14,57,24.80
2010,08,15,14,58,24.80
2010,08,15,14,59,24.80
2010,08,15,15,00,24.90
2010,08,15,15,01,25.00
2010,08,15,15,02,25.00
2010,08,15,15,03,25.10
2010,08,15,15,04,25.20
2010,08,15,15,05,25.30
2010,08,15,15,06,25.40
2010,08,15,15,07,25.50
2010,08,15,15,08,25.50
2010,08,15,15,09,25.50
2010,08,15,15,10,25.50
2010,08,15,15,11,25.60
2010,08,15,15,12,25.50
2010,08,15,15,13,25.40
2010,08,15,15,14,25.40
2010,08,15,15,15,25.30
2010,08,15,15,16,25.20
2010,08,15,15,17,25.00
2010,08,15,15,18,24.90
2010,08,15,15,19,24.90
2010,08,15,15,20,24.90
2010,08,15,15,21,24.90
2010,08,15,15,22,24.90
2010,08,15,15,23,24.80
2010,08,15,15,24,24.70
2010,08,15,15,25,24.60
2010,08,15,15,26,24.60
2010,08,15,15,27,24.60
2010,08,15,15,28,24.50
2010,08,15,15,29,24.60
2010,08,15,15,30,24.60
2010,08,15,15,31,24.70
2010,08,15,15,32,24.80
2010,08,15,15,33,24.90
2010,08,15,15,34,25.10
2010,08,15,15,35,25.20
2010,08,15,15,36,25.40
2010,08,15,15,37,25.40
2010,08,15,15,38,25.40
2010,08,15,15,39,25.40
2010,08,15,15,40,25.50
2010,08,15,15,41,25.50
2010,08,15,15,42,25.60
2010,08,15,15,43,25.60
2010,08,15,15,44,25.60
2010,08,15,15,45,25.60
2010,08,15,15,46,25.70
2010,08,15,15,47,25.70
2010,08,15,15,48,25.70
2010,08,15,15,49,25.70
2010,08,15,15,50,25.70
2010,08,15,15,51,25.70
2010,08,15,15,52,25.80
2010,08,15,15,53,25.80
2010,08,15,15,54,25.80
2010,08,15,15,55,25.90
2010,08,15,15,56,25.90
2010,08,15,15,57,25.90
2010,08,15,15,58,25.90
2010,08,15,15,59,25.90
2010,08,15,16,00,25.90
2010,08,15,16,01,25.90
2010,08,15,16,02,25.90
2010,08,15,16,03,26.00
2010,08,15,16,04,26.00
2010,08,15,16,05,25.90
2010,08,15,16,06,25.90
2010,08,15,16,07,25.90
2010,08,15,16,08,25.80
2010,08,15,16,09,25.80
2010,08,15,16,10,25.80
2010,08,15,16,11,25.90
2010,08,15,16,12,25.90
2010,08,15,16,13,26.00
2010,08,15,16,14,26.10
2010,08,15,16,15,26.10
2010,08,15,16,16,26.20
2010,08,15,16,17,26.20
2010,08,15,16,18,26.20
2010,08,15,16,19,26.10
2010,08,15,16,20,26.10
2010,08,15,16,21,26.00
2010,08,15,16,22,25.90
2010,08,15,16,23,25.70
2010,08,15,16,24,25.60
2010,08,15,16,25,25.60
2010,08,15,16,26,25.60
2010,08,15,16,27,25.60
2010,08,15,16,28,25.50
2010,08,15,16,29,25.40
2010,08,15,16,30,25.40
2010,08,15,16,31,25.40
2010,08,15,16,32,25.30
2010,08,15,16,33,25.30
2010,08,15,16,34,25.30
2010,08,15,16,35,25.30
2010,08,15,16,36,25.20
2010,08,15,16,37,25.30
2010,08,15,16,38,25.30
2010,08,15,16,39,25.30
2010,08,15,16,40,25.40
2010,08,15,16,41,25.50
2010,08,15,16,42,25.60
2010,08,15,16,43,25.60
2010,08,15,16,44,25.50
2010,08,15,16,45,25.50
2010,08,15,16,46,25.50
2010,08,15,16,47,25.50
2010,08,15,16,48,25.60
2010,08,15,16,49,25.70
2010,08,15,16,50,25.80
2010,08,15,16,51,25.80
2010,08,15,16,52,26.00
2010,08,15,16,53,26.10
2010,08,15,16,54,26.20
2010,08,15,16,55,26.20
2010,08,15,16,56,26.20
2010,08,15,16,57,26.30
2010,08,15,16,58,26.40
2010,08,15,16,59,26.60
2010,08,15,17,00,26.60
2010,08,15,17,01,26.70
2010,08,15,17,02,26.80
2010,08,15,17,03,26.80
2010,08,15,17,04,26.80
2010,08,15,17,05,26.70
2010,08,15,17,06,26.70
2010,08,15,17,07,26.70
2010,08,15,17,08,26.70
2010,08,15,17,09,26.70
2010,08,15,17,10,26.60
2010,08,15,17,11,26.60
2010,08,15,17,12,26.40
2010,08,15,17,13,26.30
2010,08,15,17,14,26.20
2010,08,15,17,15,26.10
2010,08,15,17,16,26.10
2010,08,15,17,17,26.10
2010,08,15,17,18,26.00
2010,08,15,17,19,26.00